This demonstration page uses our WeatherBlox Daily Observations layout. Learn more.

Left ArrowRight Arrow

Hourly Observations for July 13, 2021

Temp ( °F °C ) Dew Point ( °F °C ) Humidity (%) Winds ( mph kmh ) Pressure ( in mb ) Visibility ( mi km ) Precip ( " mm )
12:53 am 00:53 Clear 68 20 45 7.2 44 44 E 14 22 30.01 1016 10 16 0.00 0.00
1:53 am 01:53 Clear 68 20 45 7.2 44 44 E 15 24 30.00 1016 10 16 0.00 0.00
2:53 am 02:53 Clear 66 18.9 45 7.2 47 47 E 14 22 30.00 1016 10 16 0.00 0.00
3:53 am 03:53 Clear 63 17.2 45 7.2 52 52 E 13 20 30.00 1016 10 16 0.00 0.00
4:53 am 04:53 Clear 60 15.6 46 7.8 60 60 ENE 14 22 30.01 1016 10 16 0.00 0.00
5:53 am 05:53 Sunny 59 15 46 7.8 62 62 ENE 10 17 30.01 1016 10 16 0.00 0.00
6:53 am 06:53 Sunny 61 16.1 45 7.2 56 56 ENE 15 24 30.00 1016 10 16 0.00 0.00
7:53 am 07:53 Sunny 68 20 46 7.8 45 45 ENE 8 13 30.01 1016 10 16 0.00 0.00
8:53 am 08:53 Cloudy 72 22.2 48 8.9 43 43 E 8 13 30.03 1017 10 16 0.00 0.00
9:53 am 09:53 Sunny 79 26.1 45 7.2 30 30 ESE 15 24 30.02 1017 10 16 0.00 0.00
10:53 am 10:53 Cloudy 79 26.1 45 7.2 30 30 S 8 13 30.04 1017 10 16 0.00 0.00
11:53 am 11:53 Mostly Sunny 81 27.2 46 7.8 29 29 SW 18 30 30.04 1017 10 16 0.00 0.00
12:53 pm 12:53 Mostly Cloudy 80 26.7 45 7.2 29 29 SW 16 26 30.04 1017 10 16 0.00 0.00
1:53 pm 13:53 Sunny 73 22.8 51 10.6 46 46 SSW 20 31 30.06 1018 10 16 0.00 0.00
2:53 pm 14:53 Partly Cloudy 71 21.7 54 12.2 55 55 SW 22 35 30.08 1019 10 16 0.00 0.00
3:53 pm 15:53 Cloudy 69 20.6 53 11.7 57 57 WSW 15 24 30.10 1019 10 16 0.00 0.00
4:53 pm 16:53 Mostly Cloudy 69 20.6 54 12.2 59 59 SW 17 28 30.10 1019 10 16 0.00 0.00
5:53 pm 17:53 Partly Cloudy 67 19.4 55 12.8 66 66 SW 18 30 30.10 1019 10 16 0.00 0.00
6:53 pm 18:53 Mostly Cloudy 68 20 55 12.8 63 63 SW 8 13 30.09 1019 10 16 0.00 0.00
7:53 pm 19:53 Mostly Cloudy 69 20.6 54 12.2 59 59 Calm 30.06 1018 10 16 0.00 0.00
8:53 pm 20:53 Mostly Sunny 68 20 54 12.2 61 61 E 6 9 30.07 1018 10 16 0.00 0.00
9:53 pm 21:53 Clear 65 18.3 54 12.2 68 68 ESE 9 15 30.08 1019 10 16 0.00 0.00
10:53 pm 22:53 Mostly Cloudy 66 18.9 54 12.2 65 65 SE 10 17 30.06 1018 10 16 0.00 0.00
11:53 pm 23:53 Clear 65 18.3 53 11.7 66 66 SSE 10 17 30.05 1018 10 16 0.00 0.00

Powered by AerisWeather